GLO1782 SBBR-SBEG

Flight info

Callsign GLO1782
Flight time N/A
Altitude 36000
Route UGUGA UM409 NEMEL DCT IRUMO
Aircraft B738/M-SDE2E3FGHIRWXY/LB1

Departure

Time N/A
Airport Presidente Juscelino Kubitschek International Airport (SBBR)

Arrival

Time 2026-05-03 21:04
Airport Eduardo Gomes International Airport (SBEG)
Time Latitude Longitude Altitude Speed Heading
2026-05-03 20:15 -6.43226 -56.77907 35875 ft 452 kts 306°
2026-05-03 20:15 -6.39514 -56.83002 35893 ft 452 kts 306°
2026-05-03 20:16 -6.35805 -56.88092 35874 ft 451 kts 307°
2026-05-03 20:16 -6.32098 -56.93176 35895 ft 450 kts 307°
2026-05-03 20:17 -6.28418 -56.98221 35874 ft 451 kts 307°
2026-05-03 20:17 -6.24708 -57.03308 35885 ft 451 kts 307°
2026-05-03 20:18 -6.20993 -57.08400 35889 ft 452 kts 307°
2026-05-03 20:18 -6.17272 -57.13500 35899 ft 453 kts 307°
2026-05-03 20:19 -6.13570 -57.18572 35888 ft 453 kts 307°
2026-05-03 20:19 -6.09841 -57.23676 35885 ft 453 kts 307°
2026-05-03 20:20 -6.06109 -57.28786 35868 ft 454 kts 307°
2026-05-03 20:20 -6.02373 -57.33899 35887 ft 454 kts 307°
2026-05-03 20:21 -5.98628 -57.39026 35878 ft 456 kts 307°
2026-05-03 20:21 -5.94896 -57.44134 35882 ft 457 kts 308°
2026-05-03 20:22 -5.91123 -57.49291 35887 ft 459 kts 308°
2026-05-03 20:22 -5.87333 -57.54472 35887 ft 461 kts 308°
2026-05-03 20:23 -5.83538 -57.59659 35890 ft 462 kts 308°
2026-05-03 20:23 -5.79757 -57.64826 35884 ft 462 kts 308°
2026-05-03 20:24 -5.75947 -57.70033 35880 ft 462 kts 307°
2026-05-03 20:24 -5.72138 -57.75236 35885 ft 463 kts 307°
2026-05-03 20:25 -5.68329 -57.80437 35888 ft 462 kts 307°
2026-05-03 20:25 -5.64521 -57.85635 35885 ft 462 kts 307°
2026-05-03 20:26 -5.60745 -57.90789 35889 ft 461 kts 307°
2026-05-03 20:26 -5.56948 -57.95970 35889 ft 460 kts 308°
2026-05-03 20:27 -5.53154 -58.01145 35885 ft 460 kts 308°
2026-05-03 20:27 -5.49365 -58.06314 35889 ft 459 kts 308°
2026-05-03 20:28 -5.45603 -58.11442 35887 ft 459 kts 307°
2026-05-03 20:28 -5.41820 -58.16600 35888 ft 459 kts 307°
2026-05-03 20:29 -5.38035 -58.21759 35894 ft 458 kts 308°
2026-05-03 20:29 -5.34258 -58.26904 35886 ft 458 kts 308°
2026-05-03 20:30 -5.30479 -58.32052 35885 ft 458 kts 308°
2026-05-03 20:30 -5.26732 -58.37154 35887 ft 457 kts 308°
2026-05-03 20:31 -5.22968 -58.42280 35886 ft 456 kts 308°
2026-05-03 20:31 -5.19203 -58.47404 35882 ft 456 kts 308°
2026-05-03 20:32 -5.15439 -58.52527 35885 ft 456 kts 308°
2026-05-03 20:32 -5.11675 -58.57648 35887 ft 456 kts 308°
2026-05-03 20:33 -5.07933 -58.62738 35885 ft 457 kts 308°
2026-05-03 20:33 -5.04164 -58.67864 35890 ft 457 kts 308°
2026-05-03 20:34 -5.00387 -58.72999 35883 ft 457 kts 308°
2026-05-03 20:34 -4.96609 -58.78135 35885 ft 458 kts 308°
2026-05-03 20:35 -4.92850 -58.83244 35888 ft 458 kts 308°
2026-05-03 20:35 -4.89062 -58.88392 35885 ft 459 kts 308°
2026-05-03 20:36 -4.85271 -58.93542 35890 ft 459 kts 308°
2026-05-03 20:36 -4.81480 -58.98691 35890 ft 459 kts 308°
2026-05-03 20:37 -4.77708 -59.03813 35890 ft 460 kts 308°
2026-05-03 20:37 -4.73907 -59.08972 35890 ft 460 kts 308°
2026-05-03 20:38 -4.70098 -59.14143 35585 ft 466 kts 308°
2026-05-03 20:38 -4.68167 -59.16762 35032 ft 467 kts 308°
2026-05-03 20:38 -4.66236 -59.19382 34436 ft 467 kts 308°
2026-05-03 20:38 -4.64302 -59.22007 33762 ft 470 kts 308°
2026-05-03 20:39 -4.62382 -59.24611 33036 ft 472 kts 308°
2026-05-03 20:39 -4.60430 -59.27258 32346 ft 473 kts 308°
2026-05-03 20:39 -4.58486 -59.29896 31852 ft 469 kts 308°
2026-05-03 20:39 -4.56550 -59.32522 31354 ft 466 kts 308°
2026-05-03 20:40 -4.54635 -59.35120 30844 ft 464 kts 307°
2026-05-03 20:40 -4.52724 -59.37712 30355 ft 461 kts 307°
2026-05-03 20:40 -4.50823 -59.40289 29845 ft 459 kts 307°
2026-05-03 20:40 -4.48932 -59.42852 29291 ft 456 kts 307°
2026-05-03 20:41 -4.47055 -59.45396 28773 ft 452 kts 307°
2026-05-03 20:41 -4.45219 -59.47885 28282 ft 448 kts 307°
2026-05-03 20:41 -4.43375 -59.50385 27783 ft 444 kts 307°
2026-05-03 20:41 -4.41544 -59.52866 27299 ft 441 kts 307°
2026-05-03 20:42 -4.39727 -59.55328 26821 ft 438 kts 307°
2026-05-03 20:42 -4.37923 -59.57772 26345 ft 435 kts 307°
2026-05-03 20:42 -4.36131 -59.60199 25870 ft 432 kts 307°
2026-05-03 20:42 -4.34347 -59.62616 25373 ft 430 kts 307°
2026-05-03 20:43 -4.32456 -59.64926 24841 ft 429 kts 317°
2026-05-03 20:43 -4.30160 -59.66816 24316 ft 426 kts 327°
2026-05-03 20:43 -4.27645 -59.68280 23875 ft 422 kts 335°
2026-05-03 20:43 -4.25016 -59.69542 23520 ft 417 kts 336°
2026-05-03 20:44 -4.22405 -59.70773 23048 ft 413 kts 336°
2026-05-03 20:44 -4.19813 -59.71994 22540 ft 410 kts 336°
2026-05-03 20:44 -4.17239 -59.73211 22044 ft 407 kts 336°
2026-05-03 20:44 -4.14706 -59.74417 21475 ft 400 kts 336°
2026-05-03 20:45 -4.12202 -59.75614 20819 ft 398 kts 336°
2026-05-03 20:45 -4.09747 -59.76792 20186 ft 395 kts 336°
2026-05-03 20:45 -4.07279 -59.77978 19592 ft 392 kts 336°
2026-05-03 20:45 -4.06130 -59.78531 19323 ft 390 kts 336°
2026-05-03 20:46 -4.04429 -59.79350 18921 ft 387 kts 336°
2026-05-03 20:46 -4.02012 -59.80512 18369 ft 384 kts 336°
2026-05-03 20:47 -3.99616 -59.81665 17771 ft 380 kts 336°
2026-05-03 20:47 -3.97254 -59.82802 17269 ft 373 kts 336°
2026-05-03 20:47 -3.94970 -59.83902 16848 ft 366 kts 336°
2026-05-03 20:47 -3.92700 -59.84995 16423 ft 358 kts 336°
2026-05-03 20:48 -3.90474 -59.86066 16013 ft 352 kts 336°
2026-05-03 20:48 -3.88283 -59.87120 15613 ft 347 kts 336°
2026-05-03 20:48 -3.86117 -59.88162 15222 ft 345 kts 336°
2026-05-03 20:48 -3.83958 -59.89200 14830 ft 345 kts 336°
2026-05-03 20:49 -3.81762 -59.90254 14423 ft 355 kts 336°
2026-05-03 20:49 -3.79518 -59.91330 14002 ft 358 kts 336°
2026-05-03 20:49 -3.77289 -59.92402 13561 ft 352 kts 336°
2026-05-03 20:49 -3.75131 -59.93441 13127 ft 345 kts 336°
2026-05-03 20:50 -3.72992 -59.94471 12722 ft 338 kts 336°
2026-05-03 20:50 -3.70891 -59.95482 12322 ft 332 kts 336°
2026-05-03 20:50 -3.68827 -59.96475 11939 ft 328 kts 336°
2026-05-03 20:50 -3.66774 -59.97461 11558 ft 327 kts 336°
2026-05-03 20:51 -3.64719 -59.98448 11191 ft 330 kts 336°
2026-05-03 20:51 -3.62610 -59.99460 10800 ft 340 kts 336°
2026-05-03 20:51 -3.60486 -60.00480 10540 ft 334 kts 336°
2026-05-03 20:51 -3.58439 -60.01465 10370 ft 319 kts 336°
2026-05-03 20:52 -3.56509 -60.02396 10226 ft 306 kts 336°
2026-05-03 20:52 -3.54631 -60.03300 10093 ft 293 kts 336°
2026-05-03 20:52 -3.52831 -60.04166 9968 ft 281 kts 336°
2026-05-03 20:52 -3.51094 -60.05001 9781 ft 275 kts 336°
2026-05-03 20:53 -3.49370 -60.05829 9502 ft 274 kts 336°
2026-05-03 20:53 -3.47654 -60.06653 9244 ft 273 kts 336°
2026-05-03 20:53 -3.45943 -60.07476 8955 ft 272 kts 336°
2026-05-03 20:53 -3.44240 -60.08292 8686 ft 271 kts 337°
2026-05-03 20:54 -3.42550 -60.09101 8432 ft 275 kts 337°
2026-05-03 20:54 -3.39020 -60.10793 7869 ft 285 kts 337°
2026-05-03 20:54 -3.37232 -60.11653 7579 ft 285 kts 337°
2026-05-03 20:55 -3.35449 -60.12511 7293 ft 284 kts 337°
2026-05-03 20:55 -3.33669 -60.13367 7015 ft 284 kts 337°
2026-05-03 20:55 -3.31892 -60.14220 6728 ft 283 kts 337°
2026-05-03 20:55 -3.30114 -60.15073 6431 ft 284 kts 337°
2026-05-03 20:56 -3.28359 -60.15916 6145 ft 283 kts 337°
2026-05-03 20:56 -3.26587 -60.16767 5843 ft 283 kts 337°
2026-05-03 20:56 -3.24816 -60.17617 5548 ft 282 kts 337°
2026-05-03 20:56 -3.23054 -60.18462 5267 ft 280 kts 337°
2026-05-03 20:57 -3.21304 -60.19302 5048 ft 277 kts 338°
2026-05-03 20:57 -3.19593 -60.20125 4946 ft 266 kts 338°
2026-05-03 20:57 -3.17971 -60.20906 4861 ft 251 kts 338°
2026-05-03 20:57 -3.16446 -60.21641 4772 ft 236 kts 338°
2026-05-03 20:58 -3.15013 -60.22331 4667 ft 221 kts 338°
2026-05-03 20:58 -3.13655 -60.22871 4533 ft 204 kts 355°
2026-05-03 20:58 -3.12305 -60.22885 4452 ft 187 kts
2026-05-03 20:58 -3.11017 -60.22875 4247 ft 183 kts
2026-05-03 20:59 -3.09749 -60.22870 4064 ft 182 kts
2026-05-03 20:59 -3.08459 -60.22867 3844 ft 194 kts
2026-05-03 20:59 -3.07118 -60.22863 3663 ft 189 kts
2026-05-03 20:59 -3.05834 -60.22825 3459 ft 180 kts 16°
2026-05-03 21:00 -3.04787 -60.22289 3300 ft 163 kts 45°
2026-05-03 21:00 -3.04528 -60.22032 3245 ft 162 kts 53°
2026-05-03 21:00 -3.04064 -60.20267 2915 ft 163 kts 83°
2026-05-03 21:00 -3.03933 -60.19159 2700 ft 157 kts 83°
2026-05-03 21:01 -3.03857 -60.18080 2499 ft 154 kts 88°
2026-05-03 21:01 -3.03838 -60.17017 2317 ft 151 kts 88°
2026-05-03 21:01 -3.03835 -60.15972 2133 ft 151 kts 89°
2026-05-03 21:01 -3.03836 -60.14941 1925 ft 145 kts 89°
2026-05-03 21:02 -3.03838 -60.13942 1741 ft 142 kts 88°
2026-05-03 21:02 -3.03839 -60.12946 1557 ft 147 kts 88°
2026-05-03 21:02 -3.03843 -60.11931 1358 ft 151 kts 91°
2026-05-03 21:02 -3.03844 -60.10893 1205 ft 145 kts 88°
2026-05-03 21:03 -3.03839 -60.09911 926 ft 139 kts 89°
2026-05-03 21:03 -3.03839 -60.08932 838 ft 142 kts 89°
2026-05-03 21:03 -3.03852 -60.07895 680 ft 154 kts 89°
2026-05-03 21:03 -3.03850 -60.06817 447 ft 155 kts 90°
2026-05-03 21:04 -3.03856 -60.05754 281 ft 145 kts 90°
2026-05-03 21:04 -3.03861 -60.04848 268 ft 105 kts 90°
2026-05-03 21:04 -3.03861 -60.04328 269 ft 48 kts 90°
2026-05-03 21:04 -3.03862 -60.04039 268 ft 40 kts 89°
2026-05-03 21:05 -3.03861 -60.03839 267 ft 8 kts 83°
2026-05-03 21:05 -3.03836 -60.03794 267 ft 7 kts 44°
2026-05-03 21:05 -3.03791 -60.03770 268 ft 7 kts 12°
2026-05-03 21:05 -3.03743 -60.03776 268 ft 7 kts 338°
2026-05-03 21:06 -3.03705 -60.03805 268 ft 7 kts 310°
2026-05-03 21:06 -3.03684 -60.03849 268 ft 8 kts 288°
2026-05-03 21:06 -3.03666 -60.03909 267 ft 9 kts 284°
2026-05-03 21:06 -3.03650 -60.03969 267 ft 9 kts 285°
2026-05-03 21:07 -3.03634 -60.04028 267 ft 9 kts 285°
2026-05-03 21:07 -3.03619 -60.04086 267 ft 8 kts 285°
2026-05-03 21:07 -3.03603 -60.04142 267 ft 8 kts 285°
2026-05-03 21:07 -3.03587 -60.04196 267 ft 8 kts 290°
2026-05-03 21:08 -3.03564 -60.04245 267 ft 8 kts 300°
2026-05-03 21:08 -3.03533 -60.04288 267 ft 7 kts 310°
2026-05-03 21:08 -3.03497 -60.04324 267 ft 7 kts 320°
2026-05-03 21:08 -3.03456 -60.04350 267 ft 7 kts 333°
2026-05-03 21:09 -3.03411 -60.04368 267 ft 7 kts 338°
2026-05-03 21:09 -3.03366 -60.04382 267 ft 7 kts 344°
2026-05-03 21:09 -3.03337 -60.04415 267 ft 7 kts 285°
2026-05-03 21:09 -3.03340 -60.04460 267 ft 6 kts 260°
2026-05-03 21:10 -3.03348 -60.04504 267 ft 6 kts 261°
2026-05-03 21:10 -3.03354 -60.04548 267 ft 6 kts 264°
2026-05-03 21:10 -3.03348 -60.04576 267 ft 0 kts 330°
2026-05-03 21:10 -3.03342 -60.04576 267 ft 2 kts 349°
2026-05-03 21:11 -3.03318 -60.04579 267 ft 5 kts 356°
2026-05-03 21:11 -3.03279 -60.04581 267 ft 5 kts 356°
2026-05-03 21:11 -3.03274 -60.04581 267 ft 1 kts 358°
2026-05-03 21:11 -3.03273 -60.04581 267 ft 0 kts 358°
2026-05-03 21:12 -3.03272 -60.04581 267 ft 0 kts 358°